Flag for China Weather past 2 weeks in Guilin, Guangxi, China

Now
75 °F

Fog.


Feels Like: 75 °F
Forecast: 71 / 83 °F
Wind: 3 mph from North

Location: Guilin Airport

Current Time: Apr 27, 2015 at 8:31:15 PM

Latest Report: Apr 27, 2015 at 8:00 PM


Visibility: 2 mi

Pressure: 29.86 "Hg

Humidity: 83%

Dew point: 70 °F

Location of GuilinLocation

Historic Weather in Guilin — Graph

°F

Guilin temperature yesterday

Maximum temperature yesterday: 81 °F (at 1:00 PM)
Minimum temperature yesterday: 63 °F (at 3:00 AM)
Average temperature yesterday: 72 °F

Past Weeks' High & Low Weather Summary

 TemperatureHumidityPressure
High91 °F (Apr 19, 2:00 PM)100% (Apr 16, 4:00 AM)30.27 "Hg (Apr 16, 4:00 AM)
Low52 °F (Apr 14, 6:00 AM)27% (Apr 14, 11:00 AM)29.53 "Hg (Apr 19, 5:00 PM)
Average69 °F71%29.97 "Hg
* Reported Apr 12 7:00 PM — Apr 27 7:00 PM, Guilin, Weather by CustomWeather, © 2015

Note: Actual official high and low records may vary slightly from our data, if they occured in-between our weather recording intervals... More about our weather records

Advertising

Guilin weather history for previous 24 hours

 ConditionsComfort  
Time TempWeatherWind HumidityBarometerVisibility
7:00 PM
Mon, Apr 27
77 °FFog.6 mph74%29.83 "Hg2 mi
6:00 PM77 °FFog.6 mph79%29.83 "Hg2 mi
5:00 PM79 °FBroken clouds.6 mph74%29.83 "Hg2 mi
4:00 PM81 °FMore clouds than sun.3 mph70%29.86 "Hg4 mi
3:00 PM79 °FMore clouds than sun.6 mph70%29.86 "Hg3 mi
2:00 PM79 °FMore clouds than sun.8 mph70%29.89 "Hg2 mi
1:00 PM77 °FFog.8 mph79%29.92 "Hg2 mi
12:00 PM75 °FFog.3 mph78%29.95 "Hg2 mi
11:00 AM72 °FFog.No wind88%29.98 "Hg2 mi
10:00 AM72 °FFog.1 mph88%29.98 "Hg2 mi
9:00 AM70 °FFog.1 mph94%29.98 "Hg2 mi
8:00 AM70 °FLight rain. Fog.1 mph94%29.95 "Hg2 mi
7:00 AM68 °FFog.No wind94%29.95 "Hg2 mi
6:00 AM68 °FFog.No wind94%29.92 "Hg2 mi
5:00 AM68 °FFog.1 mph94%29.92 "Hg2 mi
4:00 AM68 °FFog.No wind94%29.92 "Hg3 mi
3:00 AM70 °FFog.1 mph88%29.92 "Hg3 mi
2:00 AM70 °FFog.No wind88%29.92 "Hg3 mi
1:00 AM70 °FClear.1 mph83%29.95 "Hg4 mi
12:00 AM68 °FClear.1 mph88%29.95 "Hg4 mi
11:00 PM
Sun, Apr 26
70 °FClear.3 mph83%29.98 "Hg4 mi
10:00 PM72 °FClear.3 mph78%29.95 "Hg4 mi
9:00 PM73 °FClear.3 mph74%29.95 "Hg4 mi
8:00 PM77 °FPassing clouds.1 mph65%29.95 "Hg5 mi
Weather by CustomWeather, © 2015

See weather overviewHow to use our weather pages